Location: Sawmill Trailhead
(33.5800°N, 116.4497°W)
Time: 08:36:14
(UTC-07:00)

Amateur Radio Satellites - All Passes

Search period start: 26 September 2016 08:06
Search period end: 27 September 2016 08:06
Location: Sawmill Trailhead, 33.5800°N, 116.4497°W

Satellite Date Start Highest point End Downlink Frequencies (MHz)
Time Altitude Azimuth
SEEDS 26 Sep 08:07:27 08:10:49 23° 96° (E) 08:14:11 437.485
GONETS M04 26 Sep 08:18:08 08:26:18 44° 88° (E) 08:34:29
O/OREOS (USA 219) 26 Sep 08:25:38 08:29:25 26° 296° (WNW) 08:33:15 437.305
CUSAT 1 26 Sep 08:32:11 08:34:32 12° 282° (WNW) 08:36:45 437.405
CUBEBUG 2 26 Sep 08:32:50 08:36:17 23° 96° (E) 08:39:48 437.445
AAUSAT CUBESAT 2 26 Sep 08:35:27 08:38:54 25° 96° (E) 08:42:21 437.432
FUNcube-1 26 Sep 08:48:56 08:50:52 13° 93° (E) 08:52:48 145.935
CINEMA 3 26 Sep 08:49:00 08:53:01 49° 285° (WNW) 08:57:08 145.822/145.860
STRAND 1 26 Sep 08:51:01 08:52:44 12° 268° (W) 08:54:27 437.568
UWE-3 26 Sep 08:54:43 08:58:25 27° 97° (E) 09:02:10 435.000/436.395/437.385
PRISM 26 Sep 09:07:15 09:11:23 69° 258° (WSW) 09:15:33 437.425
COMPASS 1 26 Sep 09:17:14 09:21:28 72° 282° (WNW) 09:25:38 437.405
Cosmos 2499 26 Sep 09:21:23 09:28:41 83° 276° (W) 09:35:45 435.465 / 435.565
ZACube-1 26 Sep 09:27:59 09:32:05 41° 99° (E) 09:36:17 437.345
Oscar 11 26 Sep 09:29:39 09:33:47 41° 99° (E) 09:37:54 145.826/435.025
ANTELSAT 26 Sep 09:36:27 09:39:55 24° 71° (ENE) 09:43:23 437.575/2403.000
CUTE 1.7 + AOD 2 26 Sep 09:38:27 09:41:29 19° 290° (WNW) 09:44:30 437.475
CANX-2 26 Sep 09:39:40 09:42:18 16° 291° (WNW) 09:44:56 2200.000
SEEDS 26 Sep 09:42:59 09:46:23 24° 289° (WNW) 09:49:47 437.485
HO-68 26 Sep 09:52:38 09:58:50 33° 294° (WNW) 10:05:02 435.675
TIGRISAT 26 Sep 09:56:54 10:00:54 40° 74° (ENE) 10:04:53 435.000
HUMSAT D 26 Sep 10:05:11 10:08:14 19° 95° (E) 10:11:18 437.325/437.525
BEESAT 3 26 Sep 10:08:16 10:11:45 28° 56° (NE) 10:15:12 437.485
CUBEBUG 2 26 Sep 10:09:20 10:12:47 24° 289° (WNW) 10:16:17 437.445
DELFI C3 26 Sep 10:10:40 10:14:33 47° 99° (E) 10:18:24 145.870
AAUSAT CUBESAT 2 26 Sep 10:11:03 10:14:13 21° 290° (WNW) 10:17:21 437.432
GONETS M04 26 Sep 10:15:18 10:23:07 35° 285° (WNW) 10:31:01
FUNcube-1 26 Sep 10:23:07 10:27:14 44° 285° (WNW) 10:31:26 145.935
UWE-3 26 Sep 10:31:28 10:34:41 21° 290° (WNW) 10:37:58 435.000/436.395/437.385
UNISAT 6 26 Sep 10:36:41 10:40:55 58° 259° (W) 10:45:07 437.425
QB50P1 26 Sep 10:38:06 10:40:28 15° 68° (ENE) 10:42:51 145.935-145.965
DUCHIFAT 1 26 Sep 10:38:32 10:40:22 13° 67° (ENE) 10:42:12 145.980
POPSAT HIP 1 26 Sep 10:50:36 10:53:43 20° 70° (ENE) 10:56:50 437.405
PHONESAT 2.4 26 Sep 10:59:16 11:02:09 61° 152° (SSE) 11:05:04 2401.200-2431.200
BEESAT 2 26 Sep 10:59:47 11:03:43 53° 60° (ENE) 11:07:37 435.950
ZACube-1 26 Sep 11:05:42 11:08:01 14° 292° (WNW) 11:10:20 437.345
Oscar 11 26 Sep 11:07:13 11:09:31 14° 292° (WNW) 11:11:49 145.826/435.025
NANOSAT C BR1 26 Sep 11:07:30 11:11:12 31° 72° (ENE) 11:14:54 145.865
ANTELSAT 26 Sep 11:13:14 11:16:33 22° 264° (W) 11:19:50 437.575/2403.000
QB50P2 26 Sep 11:28:42 11:32:53 67° 76° (ENE) 11:37:04 145.880/145.840
POLYITAN 1 26 Sep 11:30:57 11:35:08 68° 75° (ENE) 11:39:18 437.675
JAS-2 26 Sep 11:34:31 11:40:32 53° 71° (ENE) 11:47:22 435.910
TIGRISAT 26 Sep 11:35:46 11:37:44 13° 267° (W) 11:39:41 435.000
HUMSAT D 26 Sep 11:40:10 11:43:48 28° 288° (WNW) 11:47:28 437.325/437.525
BEESAT 3 26 Sep 11:46:24 11:49:11 18° 250° (WSW) 11:51:56 437.485
DELFI C3 26 Sep 11:48:08 11:48:54 10° 293° (WNW) 11:49:40 145.870
ESTCUBE 1 26 Sep 11:52:07 11:56:31 48° 100° (E) 12:00:52 437.505/2401.250
DX 1 26 Sep 11:58:01 12:00:24 14° 94° (E) 12:02:46 434.975-435.025
VELOX 1 26 Sep 11:59:16 12:02:56 26° 97° (E) 12:06:34 145.980
CUBEBUG 1 26 Sep 12:07:34 12:11:42 43° 99° (E) 12:15:48 437.445
50 SAT 26 Sep 12:10:47 12:14:06 32° 98° (E) 12:17:24 437.505
DUCHIFAT 1 26 Sep 12:11:40 12:15:38 42° 261° (W) 12:19:37 145.980
QB50P1 26 Sep 12:12:01 12:15:54 36° 261° (W) 12:19:48 145.935-145.965
BUGSAT 1 26 Sep 12:20:47 12:24:57 90° 353° (N) 12:29:03 437.445
POPSAT HIP 1 26 Sep 12:25:48 12:29:19 25° 263° (W) 12:32:50 437.405
Oscar 19 26 Sep 12:34:20 12:38:26 24° 68° (ENE) 12:42:31 437.125/150
PHONESAT 2.4 26 Sep 12:35:49 12:38:25 28° 347° (NNW) 12:41:02 2401.200-2431.200
AUBIESAT-1 26 Sep 12:37:05 12:39:57 27° 103° (ESE) 12:42:51 437.475
NANOSAT C BR1 26 Sep 12:44:15 12:46:56 17° 265° (W) 12:49:38 145.865
AISAT 26 Sep 12:51:15 12:55:37 69° 284° (WNW) 12:59:57 437.250
SPROUT 26 Sep 12:56:11 13:00:26 68° 101° (E) 13:04:39 437.525
UKube-1 26 Sep 13:06:56 13:11:15 77° 101° (E) 13:15:33 .
AIST 2 26 Sep 13:07:45 13:11:46 42° 58° (ENE) 13:15:45 435.215
M-CUBED/EXP-1 PRIME 26 Sep 13:12:44 13:15:56 56° 289° (WNW) 13:19:09 437.505
Gurwin Techsat 1B 26 Sep 13:18:30 13:23:04 30° 70° (ENE) 13:27:38 435.225
JAS-2 26 Sep 13:21:25 13:26:00 21° 269° (W) 13:31:00 435.910
ESTCUBE 1 26 Sep 13:30:40 13:32:51 13° 294° (WNW) 13:35:01 437.505/2401.250
DX 1 26 Sep 13:32:41 13:36:41 38° 287° (WNW) 13:40:41 434.975-435.025
VELOX 1 26 Sep 13:35:49 13:39:14 22° 290° (WNW) 13:42:38 145.980
CUBEBUG 1 26 Sep 13:45:30 13:47:33 13° 293° (WNW) 13:49:37 437.445
50 SAT 26 Sep 13:45:45 13:47:16 12° 292° (WNW) 13:48:46 437.505
Cosmos 2491 26 Sep 14:02:05 14:09:07 28° 84° (E) 14:16:10 435.465 / 435.565
AO-7 26 Sep 14:05:46 14:11:47 23° 58° (ENE) 14:17:48 29.400- 29.500
SWISSCUBE 26 Sep 14:08:57 14:11:49 16° 94° (E) 14:14:40 437.505
Cosmos 2504 26 Sep 14:10:19 14:14:56 17° 71° (ENE) 14:19:42 435.465 / 435.565
YUBILEINY 26 Sep 14:10:59 14:19:29 55° 80° (E) 14:27:56 435.215
PHONESAT 2.4 26 Sep 14:12:44 14:15:05 21° 4° (N) 14:17:25 2401.200-2431.200
Oscar 19 26 Sep 14:12:50 14:17:31 34° 262° (W) 14:22:14 437.125/150
AUBIESAT-1 26 Sep 14:13:05 14:14:10 11° 296° (WNW) 14:15:15 437.475
PCSat 26 Sep 14:15:49 14:21:13 63° 63° (ENE) 14:26:34 145.827
BEESAT 26 Sep 14:21:37 14:25:03 19° 95° (E) 14:28:28 436.000
TISAT 1 26 Sep 14:22:27 14:26:33 62° 285° (WNW) 14:30:40 437.305
AIST 2 26 Sep 14:47:46 14:49:50 13° 252° (WSW) 14:51:54 435.215
Gurwin Techsat 1B 26 Sep 14:58:27 15:02:55 27° 263° (W) 15:07:25 435.225
ITAMSAT 1 26 Sep 15:01:54 15:07:03 85° 76° (ENE) 15:12:16 435.822/435.867
SO-50 26 Sep 15:10:16 15:15:00 57° 116° (ESE) 15:19:44 436.795
ITUPSAT 1 26 Sep 15:31:02 15:35:50 72° 285° (WNW) 15:40:37 437.325
SWISSCUBE 26 Sep 15:45:13 15:49:45 43° 287° (WNW) 15:54:16 437.505
PHONESAT 2.4 26 Sep 15:48:44 15:51:37 46° 20° (NNE) 15:54:29 2401.200-2431.200
AO-7 26 Sep 15:55:26 16:03:44 72° 255° (WSW) 16:12:04 29.400- 29.500
Cosmos 2491 26 Sep 15:56:52 16:05:21 53° 281° (W) 16:13:58 435.465 / 435.565
BEESAT 26 Sep 15:58:32 16:02:52 35° 289° (WNW) 16:07:11 436.000
MOZHAYETS 4 26 Sep 16:00:46 16:05:05 38° 98° (E) 16:09:24
Cosmos 2504 26 Sep 16:01:23 16:08:50 74° 266° (W) 16:16:50 435.465 / 435.565
PCSat 26 Sep 16:01:27 16:03:59 13° 257° (WSW) 16:06:31 145.827
YUBILEINY 26 Sep 16:08:52 16:15:39 27° 276° (W) 16:22:28 435.215
BRITE-PL 26 Sep 16:22:05 16:25:24 16° 66° (ENE) 16:28:43 437.365/2234.400
KKS-1 26 Sep 16:36:53 16:41:15 60° 101° (E) 16:45:36 437.445
NOAA 15 26 Sep 16:43:33 16:44:44 11° 62° (ENE) 16:45:56 137.62
HORYU 2 26 Sep 16:51:12 16:55:25 47° 74° (ENE) 16:59:39 437.375
SO-50 26 Sep 16:52:49 16:55:48 16° 311° (NW) 16:58:47 436.795
Cubesat XI-IV 26 Sep 16:54:20 16:55:34 11° 62° (ENE) 16:56:47 437.490
AIST 1 26 Sep 16:54:39 16:58:56 84° 268° (W) 17:03:11
CUTE-I 26 Sep 16:54:45 16:56:12 11° 62° (ENE) 16:57:38 437.470
O/OREOS (USA 219) 26 Sep 17:00:07 17:03:54 25° 63° (ENE) 17:07:40 437.305
STARS 26 Sep 17:14:34 17:18:56 76° 101° (ESE) 17:23:17 437.465
CUBESAT XI-V 26 Sep 17:16:40 17:20:49 31° 97° (E) 17:24:56 437.345
NOAA 18 26 Sep 17:21:10 17:24:47 18° 65° (ENE) 17:28:24 137.9125
PHONESAT 2.4 26 Sep 17:25:08 17:27:38 24° 214° (SW) 17:30:08 2401.200-2431.200
MOZHAYETS 4 26 Sep 17:38:53 17:41:55 17° 292° (WNW) 17:44:57
RS-15 26 Sep 17:49:34 17:51:15 10° 95° (E) 17:52:59 29.354- 29.394
GOMX 1 26 Sep 17:54:45 18:00:03 54° 75° (ENE) 18:05:11 467.674
BRITE-PL 26 Sep 17:57:39 18:03:16 63° 260° (W) 18:08:54 437.365/2234.400
CUSAT 1 26 Sep 18:03:21 18:06:39 15° 79° (E) 18:10:18 437.405
KKS-1 26 Sep 18:16:33 18:17:15 10° 295° (WNW) 18:17:57 437.445
NOAA 15 26 Sep 18:18:27 18:23:45 81° 257° (WSW) 18:29:05 137.62
DOVE 4 26 Sep 18:23:52 18:28:43 45° 74° (ENE) 18:33:20 437.250
LilacSat-2 26 Sep 18:25:55 18:29:40 75° 259° (WSW) 18:33:26 437.200
Cubesat XI-IV 26 Sep 18:29:35 18:34:53 80° 257° (WSW) 18:40:13 437.490
CUTE-I 26 Sep 18:30:12 18:35:30 78° 257° (WSW) 18:40:50 437.470
HORYU 2 26 Sep 18:30:32 18:32:10 12° 267° (W) 18:33:49 437.375
HO-68 26 Sep 18:30:38 18:35:35 20° 61° (ENE) 18:40:30 435.675
GONETS M04 26 Sep 18:35:08 18:40:21 17° 67° (ENE) 18:45:30
O/OREOS (USA 219) 26 Sep 18:39:26 18:43:12 25° 258° (WSW) 18:46:56 437.305
CUTE 1.7 + AOD 2 26 Sep 18:52:30 18:54:27 13° 67° (ENE) 18:56:25 437.475
CANX-2 26 Sep 18:52:51 18:55:22 16° 68° (ENE) 18:57:53 2200.000
CUBESAT XI-V 26 Sep 18:54:27 18:57:57 21° 291° (WNW) 19:01:27 437.345
NOAA 18 26 Sep 18:59:42 19:05:00 50° 259° (W) 19:10:18 137.9125
Cosmos 2499 26 Sep 19:16:40 19:22:54 26° 75° (ENE) 19:29:26 435.465 / 435.565
ISS 26 Sep 19:19:39 19:21:38 15° 127° (SE) 19:23:38 145.825
DANDE 26 Sep 19:19:47 19:23:27 22° 83° (E) 19:27:56 436.750
STRAND 1 26 Sep 19:23:07 19:27:37 30° 97° (E) 19:32:05 437.568
AAUSAT CUBESAT 2 26 Sep 19:24:36 19:25:06 10° 66° (ENE) 19:25:37 437.432
CUBEBUG 2 26 Sep 19:29:06 19:30:39 12° 68° (ENE) 19:32:13 437.445
GOMX 1 26 Sep 19:35:05 19:38:17 16° 267° (W) 19:41:27 467.674
CUSAT 1 26 Sep 19:41:43 19:47:24 70° 280° (W) 19:54:39 437.405
CINEMA 3 26 Sep 19:46:02 19:50:37 88° 85° (E) 19:55:02 145.822/145.860
UWE-3 26 Sep 19:49:35 19:51:34 13° 68° (ENE) 19:53:31 435.000/436.395/437.385
RS-15 26 Sep 19:49:57 20:01:14 68° 112° (ESE) 20:13:09 29.354- 29.394
DOVE 4 26 Sep 20:03:15 20:06:28 17° 266° (W) 20:09:36 437.250
COMPASS 1 26 Sep 20:03:45 20:07:40 42° 74° (ENE) 20:11:37 437.405
HO-68 26 Sep 20:15:28 20:22:36 68° 257° (WSW) 20:29:45 435.675
ZACube-1 26 Sep 20:20:52 20:23:49 19° 70° (ENE) 20:26:45 437.345
Oscar 11 26 Sep 20:21:12 20:24:17 20° 70° (ENE) 20:27:24 145.826/435.025
CUTE 1.7 + AOD 2 26 Sep 20:25:52 20:29:52 42° 261° (W) 20:33:54 437.475
CANX-2 26 Sep 20:27:01 20:30:52 35° 262° (W) 20:34:46 2200.000
GONETS M04 26 Sep 20:29:20 20:38:11 84° 266° (W) 20:46:54
SEEDS 26 Sep 20:29:36 20:33:42 57° 260° (W) 20:37:52 437.485
JUGNU 26 Sep 20:35:28 20:39:02 16° 169° (S) 20:42:34 437.505
AO-85 26 Sep 20:50:36 20:55:46 54° 115° (ESE) 21:00:40 145.980
PRISM 26 Sep 20:53:28 20:56:37 21° 96° (E) 20:59:43 437.425
DELFI C3 26 Sep 20:53:34 20:56:04 16° 69° (ENE) 20:58:36 145.870
ISS 26 Sep 20:54:51 20:57:53 35° 321° (NW) 21:00:55 145.825
AAUSAT CUBESAT 2 26 Sep 20:56:01 21:00:03 53° 260° (W) 21:04:09 437.432
DANDE 26 Sep 21:01:28 21:05:46 33° 288° (WNW) 21:11:20 436.750
STRAND 1 26 Sep 21:02:23 21:06:38 27° 291° (WNW) 21:10:53 437.568
CUBEBUG 2 26 Sep 21:02:48 21:06:52 45° 261° (W) 21:10:54 437.445
Cosmos 2499 26 Sep 21:08:50 21:16:08 51° 269° (W) 21:24:00 435.465 / 435.565
FUNcube-1 26 Sep 21:14:19 21:18:27 83° 77° (ENE) 21:22:35 145.935
UWE-3 26 Sep 21:23:43 21:27:39 39° 261° (W) 21:31:34 435.000/436.395/437.385
COMPASS 1 26 Sep 21:41:47 21:43:23 12° 268° (W) 21:44:58 437.405
TIGRISAT 26 Sep 21:54:02 21:55:40 12° 93° (E) 21:57:19 435.000
ZACube-1 26 Sep 21:56:24 21:59:54 26° 263° (W) 22:03:23 437.345
Oscar 11 26 Sep 21:56:30 22:00:12 28° 263° (W) 22:03:56 145.826/435.025
RS-15 26 Sep 22:04:13 22:14:33 35° 315° (NW) 22:25:23 29.354- 29.394
JUGNU 26 Sep 22:23:04 22:27:23 21° 179° (S) 22:31:41 437.505
HUMSAT D 26 Sep 22:26:39 22:30:41 70° 259° (W) 22:34:46 437.325/437.525
DELFI C3 26 Sep 22:27:09 22:30:38 29° 263° (W) 22:34:09 145.870
PRISM 26 Sep 22:28:29 22:31:48 24° 290° (WNW) 22:35:06 437.425
GONETS M04 26 Sep 22:30:14 22:33:32 13° 282° (WNW) 22:36:51
UNISAT 6 26 Sep 22:32:04 22:36:11 37° 99° (E) 22:40:21 437.425
AO-85 26 Sep 22:32:53 22:36:28 19° 309° (NW) 22:39:55 145.980
ESTCUBE 1 26 Sep 22:47:55 22:51:44 27° 71° (ENE) 22:55:34 437.505/2401.250
VELOX 1 26 Sep 22:53:43 22:56:14 15° 67° (ENE) 22:58:46 145.980
CUBEBUG 1 26 Sep 22:59:56 23:03:25 23° 70° (ENE) 23:06:52 437.445
ANTELSAT 26 Sep 23:07:15 23:11:41 82° 283° (WNW) 23:16:13 437.575/2403.000
SRMSAT 26 Sep 23:17:41 23:21:29 18° 171° (S) 23:25:16 437.500
QB50P2 26 Sep 23:18:59 23:21:22 15° 94° (E) 23:23:46 145.880/145.840
AUBIESAT-1 26 Sep 23:19:12 23:22:27 23° 68° (ENE) 23:25:33 437.475
POLYITAN 1 26 Sep 23:21:12 23:23:36 15° 94° (E) 23:26:00 437.675
TIGRISAT 26 Sep 23:28:17 23:32:32 49° 285° (WNW) 23:36:52 435.000
AISAT 26 Sep 23:44:09 23:48:33 62° 75° (ENE) 23:52:57 437.250
SPROUT 26 Sep 23:45:54 23:49:37 30° 72° (ENE) 23:53:20 437.525
SO-50 26 Sep 23:46:37 23:49:43 18° 50° (NE) 23:52:46 436.795
M-CUBED/EXP-1 PRIME 26 Sep 23:54:26 23:58:44 82° 73° (ENE) 00:02:44 437.505
BEESAT 3 26 Sep 23:56:51 23:58:24 12° 108° (ESE) 23:59:57 437.485
UKube-1 26 Sep 23:57:26 00:01:25 37° 72° (ENE) 00:05:25 .
DUCHIFAT 1 26 Sep 23:59:33 00:03:28 37° 99° (E) 00:07:21 145.980
QB50P1 27 Sep 00:00:19 00:04:21 45° 99° (E) 00:08:23 145.935-145.965
BUGSAT 1 27 Sep 00:07:40 00:10:14 16° 95° (E) 00:12:49 437.445
UNISAT 6 27 Sep 00:09:50 00:12:34 16° 291° (WNW) 00:15:20 437.425
JUGNU 27 Sep 00:11:56 00:15:44 18° 189° (S) 00:19:31 437.505
POPSAT HIP 1 27 Sep 00:13:36 00:17:47 66° 101° (E) 00:21:58 437.405
50 SAT 27 Sep 00:16:19 00:19:49 49° 260° (W) 00:23:22 437.505
DX 1 27 Sep 00:23:28 00:27:51 77° 257° (WSW) 00:32:15 434.975-435.025
ESTCUBE 1 27 Sep 00:24:56 00:28:27 22° 264° (W) 00:32:00 437.505/2401.250
RS-15 27 Sep 00:27:43 00:32:36 13° 348° (NNW) 00:37:33 29.354- 29.394
VELOX 1 27 Sep 00:28:07 00:32:19 41° 261° (W) 00:36:33 145.980
NANOSAT C BR1 27 Sep 00:30:44 00:34:55 78° 285° (WNW) 00:39:07 145.865
JAS-2 27 Sep 00:32:36 00:40:29 72° 102° (ESE) 00:47:53 435.910
CUBEBUG 1 27 Sep 00:35:51 00:39:32 26° 263° (W) 00:43:13 437.445
BEESAT 2 27 Sep 00:48:15 00:51:27 24° 111° (ESE) 00:54:40 435.950
Oscar 19 27 Sep 00:52:25 00:53:19 10° 91° (E) 00:54:12 437.125/150
QB50P2 27 Sep 00:53:24 00:57:15 35° 287° (WNW) 01:01:05 145.880/145.840
AUBIESAT-1 27 Sep 00:53:26 00:56:47 23° 258° (WSW) 00:59:57 437.475
POLYITAN 1 27 Sep 00:55:37 00:59:27 35° 287° (WNW) 01:03:18 437.675
SRMSAT 27 Sep 01:05:40 01:09:59 21° 181° (S) 01:14:19 437.500
TISAT 1 27 Sep 01:09:43 01:13:49 54° 75° (ENE) 01:17:54 437.305
SWISSCUBE 27 Sep 01:12:53 01:14:42 12° 65° (ENE) 01:16:32 437.505
SPROUT 27 Sep 01:22:37 01:25:32 18° 265° (W) 01:28:28 437.525
BEESAT 27 Sep 01:25:05 01:27:44 15° 66° (ENE) 01:30:22 436.000
SO-50 27 Sep 01:26:06 01:30:23 42° 246° (WSW) 01:34:33 436.795
BEESAT 3 27 Sep 01:31:58 01:35:37 40° 302° (WNW) 01:39:21 437.485
UKube-1 27 Sep 01:35:06 01:37:32 15° 266° (W) 01:40:00 .
DUCHIFAT 1 27 Sep 01:36:32 01:38:48 14° 292° (WNW) 01:41:03 145.980
QB50P1 27 Sep 01:38:00 01:39:41 12° 293° (WNW) 01:41:23 145.935-145.965
Gurwin Techsat 1B 27 Sep 01:39:36 01:42:51 16° 94° (E) 01:46:05 435.225
BUGSAT 1 27 Sep 01:42:09 01:45:37 28° 288° (WNW) 01:49:04 437.445
Cosmos 2491 27 Sep 02:11:57 02:20:45 65° 81° (E) 02:29:27 435.465 / 435.565
JAS-2 27 Sep 02:19:03 02:24:36 22° 298° (WNW) 02:30:00 435.910
BEESAT 2 27 Sep 02:26:04 02:29:10 22° 306° (NW) 02:32:18 435.950
Oscar 19 27 Sep 02:27:55 02:33:03 70° 285° (WNW) 02:38:07 437.125/150
ITUPSAT 1 27 Sep 02:33:30 02:38:15 83° 76° (ENE) 02:43:02 437.325
RS-15 27 Sep 02:45:19 02:52:56 18° 27° (NNE) 03:00:30 29.354- 29.394
Cosmos 2504 27 Sep 02:46:28 02:50:03 14° 82° (E) 02:53:34 435.465 / 435.565
SWISSCUBE 27 Sep 02:47:15 02:51:56 60° 259° (W) 02:56:39 437.505
SRMSAT 27 Sep 02:54:54 02:58:29 16° 191° (S) 03:02:05 437.500
MOZHAYETS 4 27 Sep 02:59:11 03:02:45 23° 70° (ENE) 03:06:19
BEESAT 27 Sep 03:00:30 03:05:04 47° 260° (W) 03:09:39 436.000
AIST 2 27 Sep 03:02:01 03:05:14 23° 111° (ESE) 03:08:29 435.215
YUBILEINY 27 Sep 03:06:12 03:14:57 73° 93° (E) 03:23:40 435.215
PCSat 27 Sep 03:13:03 03:15:45 14° 103° (ESE) 03:18:27 145.827
Gurwin Techsat 1B 27 Sep 03:17:53 03:23:00 50° 287° (WNW) 03:28:07 435.225
ITAMSAT 1 27 Sep 03:18:57 03:23:53 42° 99° (E) 03:28:49 435.822/435.867
ISS 27 Sep 03:25:42 03:28:45 34° 39° (NE) 03:31:47 145.825
KKS-1 27 Sep 03:31:02 03:35:01 33° 72° (ENE) 03:39:01 437.445
AO-7 27 Sep 04:01:42 04:09:43 51° 102° (ESE) 04:17:42 29.400- 29.500
STARS 27 Sep 04:07:10 04:11:15 39° 73° (ENE) 04:15:19 437.465
Cosmos 2491 27 Sep 04:10:27 04:16:43 22° 278° (W) 04:22:59 435.465 / 435.565
CUBESAT XI-V 27 Sep 04:16:33 04:19:56 20° 69° (ENE) 04:23:20 437.345
Cosmos 2504 27 Sep 04:35:00 04:42:33 76° 277° (W) 04:49:46 435.465 / 435.565
MOZHAYETS 4 27 Sep 04:35:52 04:39:44 27° 264° (W) 04:43:38
AIST 2 27 Sep 04:40:11 04:43:34 25° 306° (NW) 04:47:00 435.215
CUSAT 1 27 Sep 04:43:17 04:44:50 11° 60° (ENE) 04:46:20 437.405
HORYU 2 27 Sep 04:47:55 04:49:48 12° 93° (E) 04:51:42 437.375
PCSat 27 Sep 04:53:12 04:58:32 61° 298° (WNW) 05:03:55 145.827
RS-15 27 Sep 04:56:57 05:09:06 56° 55° (NE) 05:20:52 29.354- 29.394
ITAMSAT 1 27 Sep 04:59:18 05:03:01 20° 293° (WNW) 05:06:43 435.822/435.867
ISS 27 Sep 05:02:51 05:05:01 16° 232° (SW) 05:07:11 145.825
YUBILEINY 27 Sep 05:06:22 05:12:27 20° 290° (WNW) 05:18:34 435.215
KKS-1 27 Sep 05:08:36 05:11:36 18° 265° (W) 05:14:37 437.445
AIST 1 27 Sep 05:19:15 05:23:37 70° 95° (E) 05:27:59
AO-85 27 Sep 05:28:17 05:30:16 13° 48° (NE) 05:32:11 145.980
STARS 27 Sep 05:45:18 05:47:42 14° 266° (W) 05:50:06 437.465
CUBESAT XI-V 27 Sep 05:52:49 05:57:02 33° 262° (W) 06:01:18 437.345
AO-7 27 Sep 05:55:04 06:02:04 32° 298° (WNW) 06:09:05 29.400- 29.500
DANDE 27 Sep 06:00:59 06:07:32 25° 69° (ENE) 06:13:42 436.750
GOMX 1 27 Sep 06:02:26 06:05:22 18° 94° (E) 06:08:13 467.674
LilacSat-2 27 Sep 06:04:18 06:06:37 15° 94° (E) 06:08:55 437.200
BRITE-PL 27 Sep 06:07:40 06:12:21 60° 100° (E) 06:16:40 437.365/2234.400
CUSAT 1 27 Sep 06:20:47 06:28:27 71° 80° (E) 06:34:41 437.405
HORYU 2 27 Sep 06:22:16 06:26:32 46° 286° (WNW) 06:30:48 437.375
DOVE 4 27 Sep 06:28:45 06:30:41 13° 93° (E) 06:32:38 437.250
STRAND 1 27 Sep 06:35:16 06:39:35 29° 69° (ENE) 06:43:55 437.568
NOAA 15 27 Sep 06:37:48 06:42:59 53° 100° (E) 06:48:07 137.62
Cubesat XI-IV 27 Sep 06:50:54 06:56:11 58° 101° (E) 07:01:27 437.490
CUTE-I 27 Sep 06:51:19 06:56:37 59° 101° (E) 07:01:53 437.470
AO-85 27 Sep 07:07:07 07:10:57 44° 246° (WSW) 07:14:38 145.980
O/OREOS (USA 219) 27 Sep 07:07:34 07:12:01 59° 107° (ESE) 07:16:33 437.305
RS-15 27 Sep 07:10:09 07:21:06 40° 254° (WSW) 07:31:47 29.354- 29.394
NOAA 18 27 Sep 07:25:34 07:31:03 85° 286° (WNW) 07:36:32 137.9125
GONETS M04 27 Sep 07:31:16 07:37:33 22° 82° (E) 07:43:51
LilacSat-2 27 Sep 07:37:37 07:40:53 27° 287° (WNW) 07:44:11 437.200
GOMX 1 27 Sep 07:39:45 07:43:30 28° 289° (WNW) 07:47:07 467.674
DANDE 27 Sep 07:42:35 07:50:54 66° 267° (W) 07:58:25 436.750
CINEMA 3 27 Sep 07:45:01 07:48:30 25° 97° (E) 07:52:04 145.822/145.860
HO-68 27 Sep 07:48:13 07:54:19 30° 97° (E) 08:00:22 435.675
BRITE-PL 27 Sep 07:48:56 07:50:07 11° 297° (WNW) 07:51:17 437.365/2234.400
Cosmos 2499 27 Sep 07:50:29 07:55:33 21° 85° (E) 08:00:31 435.465 / 435.565
